Orbital Elements at Epoch 2459200.5 (2020-Dec-17.0) TDB
Reference: JPL 28 (heliocentric ecliptic J2000)
Element | Value | Uncertainty (1-sigma) | Units |
e | .1044070188285465 | 3.8372e-08 | |
a | 2.403735290226992 | 8.0711e-09 | au |
q | 2.152768454521421 | 9.4003e-08 | au |
i | 5.920516101864085 | 3.3438e-06 | deg |
node | 271.853830535897 | 4.2333e-05 | deg |
peri | 212.5500892490433 | 4.9284e-05 | deg |
M | 36.71863703499692 | 2.41e-05 | deg |
tp | 2459061.660692884199 (2020-Jul-31.16069288) | 9.1035e-05 | TDB |
period | 1361.220203082424 3.73 | 6.8559e-06 1.877e-08 | d yr |
n | .2644685989708319 | 1.332e-09 | deg/d |
Q | 2.654702125932564 | 8.9137e-09 | au |
|
| | Orbit Determination Parameters
Additional Information
|